Location: Buchloe
(48.0161°N, 10.7316°E)
Time: 04:38:46
(UTC+02:00)

ISS - Pass Details

Date: 22 May 2018
Orbit: 402 x 407 km, 51.6° (Epoch: 26 May)

Event Time Altitude Azimuth Distance (km) Brightness Sun altitude
Rises 04:41:01 0° 286° (WNW) 2,317 -0.3 -7.4°
Reaches altitude 10° 04:43:29 10° 268° (W) 1,454 -1.5 -7.1°
Maximum altitude 04:45:51 19° 221° (SW) 1,038 -2.4 -6.8°
Drops below altitude 10° 04:48:13 10° 174° (S) 1,448 -1.4 -6.5°
Sets 04:50:41 0° 156° (SSE) 2,303 -0.2 -6.2°
